NIMBUS 2 DEB, 42440

Orbit data source: Space-Track

NIMBUS 2 DEB, 42440 is space debris in SSO originally from a launch on Sun, 15 May 1966 UTC launched from the Air Force Western Test Range (AFWTR). Debris objects in space refer to the collection of defunct objects orbiting the Earth. Examples of debris include non-operational satellites, rocket bodies, and fragments generated from explosions, collisions, or faulty payload assembly.

Loading next visibility...
Identifier
42440, 1966-040BT
Orbit
SSO
Country
Flag of USUS
Related business
Manufacturer
Unknown
Mission
Spacecraft
Bus & Motor
Unknown
Mass
Unknown
Launch date (UTC)
1966-05-15 (59 years ago)
Launch vehicle
Unknown
Launch site
Air Force Western Test Range (AFWTR)
Object type
Payload
Rocket body
Debris
Shape & HBR
Unknown shape, 0.1 m
Radar Cross Section
Small (<0.1 m²)

Expand to show TLE details & history
Last TLE update: 2 days ago

TLE from 2 days ago
0 NIMBUS 2 DEB
1 42440U 66040BT  25285.43591187  .00002247  00000-0  39264-2 0  9991
2 42440 100.2696  99.3644 0046492  52.7335 307.8020 13.44125970469909
Epoch: 2025-10-12T10:27Z
TLE epoch observation values (Epoch: 2025-10-12T10:27:42.785Z)
Latitude
-0.00007°
Longitude
-78.81693°
Altitude
1,075.511 km
Speed
7.325 km/s
True Right ascension
06h 37m 27s
True Declination
0° 00' 00"
Sunlit
Object was in daylight at epoch
Visualization orbit readout
Latitude
Unknown
Longitude
Unknown
Altitude
Unknown
Speed
Unknown
Apparent Right ascension
Unknown
Apparent Declination
Unknown
Sunlit
N/A
Visualization observer readout
Local Sidereal Time
04:40:18
Azimuth
Unknown
Elevation
Unknown
Doppler factor
Unknown
Orbital elements
Apogee altitude
1,126.015 km
Perigee altitude
1,056.561 km
Semi-major axis
7,469.425 km
Eccentricity
0.00465
Inclination
100.2696°
RAAN
99.3644°
Arg. of periapsis
52.7335°
True anomaly
307.37955°
Mean anomaly
307.802°
Eccentric anomaly
307.59092°
Mean motion
3.36211 °/min
Orbital period
107.08 mins
BSTAR
0.0039264
Loading maneuver chart data...
Computing Atmospheric mass density...
Loading historical data...
Loading historical data...
Loading historical data...
Loading historical data...
Loading historical data...
Loading historical data...
Loading historical data...

Documentation

Showing up to 5 results
|